Location: Unspecified
(41.1637°N, 24.2901°E)
Time: 09:41:41
(UTC+02:00)

ISS - Visible Passes

Search period start: 09 May 2021 00:00
Search period end: 19 May 2021 00:00
Orbit: 418 x 421 km, 51.6° (Epoch: 09 May)

Date Brightness Start Highest point End Pass type
(mag) Time Alt. Az. Time Alt. Az. Time Alt. Az.
09 May -1.0 02:03:26 16° NNW 02:03:46 16° NNW 02:06:00 10° NNE visible
09 May -0.8 03:39:30 10° NNW 03:41:36 15° N 03:43:41 10° NE visible
10 May -0.7 01:17:26 16° NNE 01:17:26 16° NNE 01:18:39 10° NNE visible
10 May -0.7 02:52:00 10° NNW 02:53:54 14° N 02:55:49 10° NE visible
10 May -1.5 04:28:36 10° NW 04:31:35 27° NNE 04:34:32 10° E visible
11 May -0.7 02:04:20 10° NW 02:06:12 14° N 02:08:04 10° NNE visible
11 May -1.1 03:41:18 10° NNW 03:43:58 21° NNE 03:46:39 10° ENE visible
12 May -0.7 01:18:15 14° NNW 01:18:30 15° N 01:20:29 10° NNE visible
12 May -0.8 02:53:58 10° NNW 02:56:20 17° NNE 02:58:42 10° ENE visible
12 May -3.1 04:30:19 10° NW 04:33:40 60° NNE 04:37:01 10° ESE visible
13 May -0.5 00:32:05 14° NNE 00:32:05 14° NNE 00:33:03 10° NNE visible
13 May -0.6 02:06:34 10° NNW 02:08:39 15° N 02:10:44 10° NE visible
13 May -2.2 03:42:57 10° NW 03:46:10 39° NNE 03:49:21 10° E visible
14 May -0.5 01:19:03 10° NNW 01:20:57 14° N 01:22:51 10° NE visible
14 May -1.6 02:55:38 10° NW 02:58:36 28° NNE 03:01:34 10° E visible
14 May -3.8 21:15:11 10° SW 21:18:29 60° SE 21:21:43 11° ENE visible
14 May -1.4 22:52:42 10° WNW 22:55:31 24° NNW 22:58:21 10° NE visible
15 May -0.5 00:31:22 10° NW 00:33:14 14° N 00:35:05 10° NNE visible
15 May -1.1 02:08:18 10° NNW 02:11:00 21° NNE 02:13:40 10° ENE visible
15 May -3.9 03:44:44 10° NW 03:48:08 81° SW 03:51:30 10° SE visible
15 May -3.1 20:28:03 10° SSW 20:31:07 34° SE 20:34:12 10° ENE visible
15 May -1.9 22:04:51 10° W 22:07:55 33° NNW 22:11:01 10° NE visible
15 May -0.5 23:43:32 10° NW 23:45:30 15° N 23:47:29 10° NNE visible
16 May -0.8 01:20:57 10° NNW 01:23:20 17° NNE 01:25:42 10° ENE visible
16 May -3.3 02:57:19 10° NW 03:00:40 61° NNE 03:04:00 10° ESE visible
16 May -2.8 21:17:07 10° WSW 21:20:23 48° NNW 21:23:41 10° NE visible
16 May -0.7 22:55:35 10° NW 22:57:48 16° NNW 23:00:02 10° NNE visible
17 May -0.6 00:33:33 10° NNW 00:35:38 15° N 00:37:44 10° NE visible
17 May -2.4 02:09:57 10° NW 02:13:09 39° NNE 02:16:21 10° E visible
17 May -2.8 03:46:57 10° WNW 03:49:51 26° SW 03:52:44 10° SSE visible
17 May -3.6 20:29:32 10° WSW 20:32:53 79° NW 20:36:15 10° NE visible
17 May -0.9 22:07:36 10° WNW 22:10:07 19° NNW 22:12:38 10° NNE visible
17 May -0.5 23:46:02 10° NNW 23:47:55 14° N 23:49:49 10° NE visible
18 May -0.7 01:22:36 10° NW 01:22:50 11° NW 01:22:50 11° NW visible
18 May -1.3 21:19:40 10° WNW 21:22:29 24° NNW 21:25:18 10° NE visible
18 May -0.5 22:58:20 10° NW 23:00:11 14° N 23:02:02 10° NNE visible
